Weather History for KGGW - February, 2014

Change the Weather History Date:

Thursday, February 13, 2014

  Actual Average Record
Temperature  
Mean Temperature 10 °F 18 °F  
Max Temperature 18 °F 28 °F 63 °F (1921)
Min Temperature 2 °F 9 °F -35 °F (1895)
Degree Days  
Heating Degree Days 55 47  
Month to date heating degree days 806 625  
Since 1 July heating degree days 5938 5714  
Cooling Degree Days 0 0  
Month to date cooling degree days 0 0  
Year to date cooling degree days 0 0  
Moisture  
Dew Point 7 °F    
Average Humidity 83    
Maximum Humidity 96    
Minimum Humidity 70    
Precipitation  
Precipitation 0.12 in 0.01 in 0.15 in (1898)
Month to date precipitation 0.12 0.11  
Year to date precipitation 0.25 0.48  
Snow  
Snow 1.80 in 0.10 in 1.80 in (2014)
Month to date snowfall 2.0 2.0  
Since 1 July snowfall 21.9 24.6  
Snow Depth T in    
Sea Level Pressure  
Sea Level Pressure 29.74 in    
Wind  
Wind Speed 11 mph (ESE)    
Max Wind Speed 20 mph    
Max Gust Speed 24 mph    
Visibility 8 miles    
Events Fog , Snow    
T = Trace of Precipitation, MM = Missing Value Source: NWS Daily Summary

Daily Weather History Graph

Daily Weather History Graph

Search for Another Location

Airport or City:

Trip Planner

Search our weather history database for the weather conditions in past years. The results will help you decide how hot, cold, wet, or windy it might be!

Date:

Astronomy

Feb. 13, 2014 Rise Set
Actual Time 7:16 AM MST 5:25 PM MST
Civil Twilight 6:44 AM MST 5:57 PM MST
Nautical Twilight 6:07 AM MST 6:34 PM MST
Astronomical Twilight 5:31 AM MST 7:10 PM MST
Moon 4:36 PM MST (2/13) 6:12 AM MST (2/13)
Length of Visible Light 11h 13m
Length of Day
10h 09m
Waxing Gibbous, 99% of the Moon is Illuminated
Feb 13
Waxing Gibbous
Feb 14
Full
Feb 22
Last Quarter
Mar 1
New
Mar 8
First Quarter

Hourly Weather History & Observations

Time (MST) Temp. Windchill Dew Point Humidity Pressure Visibility Wind Dir Wind Speed Gust Speed Precip Events Conditions
12:53 AM 12.9 °F -1.6 °F 8.1 °F 81% 29.78 in 10.0 mi NW 12.7 mph - N/A   Clear
1:53 AM 10.9 °F - 7.0 °F 84% 29.82 in 10.0 mi Calm Calm - N/A   Clear
2:53 AM 12.0 °F -0.4 °F 7.0 °F 80% 29.82 in 10.0 mi North 9.2 mph - N/A   Clear
3:53 AM 10.0 °F 1.8 °F 6.1 °F 84% 29.83 in 10.0 mi ESE 4.6 mph - N/A   Clear
4:53 AM 9.0 °F -5.1 °F 3.9 °F 80% 29.84 in 10.0 mi ESE 10.4 mph - N/A   Partly Cloudy
5:53 AM 8.1 °F -7.0 °F 1.9 °F 76% 29.82 in 10.0 mi East 11.5 mph - N/A   Overcast
6:53 AM 6.1 °F -8.7 °F 1.0 °F 80% 29.82 in 10.0 mi ESE 10.4 mph - N/A   Clear
7:53 AM 7.0 °F -11.0 °F 1.0 °F 77% 29.82 in 10.0 mi ESE 16.1 mph - N/A   Clear
8:53 AM 9.0 °F -6.6 °F 1.0 °F 70% 29.81 in 10.0 mi ESE 12.7 mph - N/A   Clear
9:53 AM 10.0 °F -7.6 °F 3.0 °F 73% 29.78 in 10.0 mi ESE 17.3 mph - N/A   Mostly Cloudy
10:53 AM 12.0 °F -2.7 °F 5.0 °F 73% 29.77 in 10.0 mi ESE 12.7 mph - N/A   Overcast
11:08 AM 12.0 °F -3.4 °F 5.0 °F 73% 29.63 in 1.8 mi ESE 13.8 mph - 0.00 in Snow Light Snow
11:13 AM 12.0 °F -4.0 °F 6.1 °F 77% 29.63 in 0.8 mi ESE 15.0 mph - 0.00 in Snow Light Snow
11:34 AM 10.9 °F -5.4 °F 7.0 °F 84% 29.61 in 0.2 mi East 15.0 mph - 0.02 in Fog , Snow Snow
11:53 AM 10.9 °F -4.7 °F 8.1 °F 88% 29.73 in 0.2 mi East 13.8 mph - 0.07 in Fog , Snow Heavy Snow
12:24 PM 12.0 °F -4.5 °F 8.1 °F 84% 29.57 in 0.5 mi ESE 16.1 mph - 0.05 in Fog , Snow Snow
12:44 PM 12.9 °F -2.2 °F 9.0 °F 84% 29.56 in 1.0 mi ESE 13.8 mph - 0.07 in Snow Light Snow
12:48 PM 14.0 °F -1.4 °F 10.4 °F 86% 29.55 in 2.5 mi ESE 15.0 mph - 0.07 in Snow Light Snow
12:53 PM 14.0 °F -2.0 °F 10.0 °F 84% 29.69 in 5.0 mi East 16.1 mph - 0.07 in Snow Light Snow
1:07 PM 15.1 °F 1.1 °F 10.9 °F 84% 29.56 in 10.0 mi ESE 12.7 mph - 0.00 in   Overcast
1:53 PM 16.0 °F 1.7 °F 10.9 °F 81% 29.69 in 9.0 mi ESE 13.8 mph - 0.00 in   Overcast
2:28 PM 17.1 °F 3.0 °F 12.0 °F 81% 29.55 in 10.0 mi ESE 13.8 mph - 0.00 in   Mostly Cloudy
2:53 PM 17.1 °F 3.0 °F 12.0 °F 81% 29.68 in 10.0 mi ESE 13.8 mph - 0.00 in   Mostly Cloudy
3:53 PM 16.0 °F 3.6 °F 12.0 °F 84% 29.70 in 10.0 mi ESE 10.4 mph - N/A   Clear
4:53 PM 17.1 °F 5.8 °F 12.0 °F 81% 29.72 in 10.0 mi East 9.2 mph - N/A   Clear
5:53 PM 12.9 °F 2.6 °F 10.0 °F 88% 29.74 in 10.0 mi ESE 6.9 mph - N/A   Partly Cloudy
6:53 PM 10.9 °F -2.6 °F 8.1 °F 88% 29.77 in 10.0 mi East 10.4 mph - N/A   Clear
8:53 PM 6.1 °F -7.8 °F 3.0 °F 87% 29.83 in 10.0 mi East 9.2 mph - N/A   Clear
9:53 PM 7.0 °F -6.6 °F 5.0 °F 92% 29.86 in 10.0 mi East 9.2 mph - N/A   Clear
10:53 PM 5.0 °F -6.9 °F 3.0 °F 92% 29.87 in 10.0 mi East 6.9 mph - N/A   Partly Cloudy
11:53 PM 3.9 °F -8.2 °F 1.0 °F 88% 29.93 in 10.0 mi ENE 6.9 mph - N/A   Clear